DateTimeUTC,F1_A11,F1_S11,BsB_S11,BsG_S11,BsR_S11,BbsB_S11,BbsG_S11,BbsR_S11,BaB_A11,BaG_A11,BaR_A11,Tu_S11,T_S11,Uu_S11,U_S11,P_S11,T1_A11
2021-02-05T17:00:00Z,00000200,21000000,,,,,,,0000.14,-000.30,0000.14,16.0,23.6,,00.0,0642.4,30.9
2021-02-05T17:01:00Z,00000200,21000000,,,,,,,-000.08,0000.03,-000.36,16.0,23.6,,00.0,0642.4,30.9
2021-02-05T17:02:00Z,00000200,21000000,,,,,,,-000.09,-000.39,0000.07,16.0,23.6,,00.0,0642.4,30.9
2021-02-05T17:03:00Z,00000200,61000000,,,,,,,-000.33,0000.55,-000.04,16.0,23.5,,00.0,0642.4,30.9
2021-02-05T17:04:00Z,00000200,41000000,0000.00,0000.36,0000.23,0000.48,0000.10,0000.14,-000.29,-000.22,-000.16,16.3,23.5,,00.0,0643.4,30.9
2021-02-05T17:05:00Z,00000200,01000000,0000.56,0000.33,0000.04,-000.24,0000.26,-000.05,-000.11,-000.28,-000.25,16.4,23.4,,00.0,0643.5,30.9
2021-02-05T17:06:00Z,00000200,01000000,0000.25,0000.52,-000.29,-000.17,0000.47,-000.27,-000.18,-000.35,-000.07,16.3,23.4,,00.0,0643.5,30.9
2021-02-05T17:07:00Z,00000200,01000000,0000.40,0000.23,-000.12,0000.05,0000.47,0000.29,0000.42,-000.13,0000.23,16.3,23.3,,00.0,0643.5,30.9
2021-02-05T17:08:00Z,00000200,01000000,-000.10,0000.32,0000.07,-000.07,0000.26,0000.01,-000.10,0000.18,-000.03,16.2,23.3,,00.0,0643.5,30.9
2021-02-05T17:09:00Z,00000200,01000000,0000.56,0000.42,0000.06,-000.72,0000.31,-000.02,-000.00,0000.04,-000.26,16.2,23.3,,00.0,0643.6,30.9
2021-02-05T17:10:00Z,00000200,01000000,0000.69,0000.43,0000.10,-000.18,0000.21,0000.24,-000.15,-000.05,0000.17,16.1,23.2,,00.0,0643.6,30.9
2021-02-05T17:11:00Z,00000200,01000000,-000.18,0000.15,-000.13,0000.03,0000.25,-000.04,0000.31,0000.06,0000.37,16.1,23.2,,00.0,0643.6,30.9
2021-02-05T17:12:00Z,00000200,01000000,0000.51,0000.36,0000.12,-000.42,0000.20,-000.02,-000.07,-000.13,0000.08,16.0,23.2,,00.0,0643.6,30.9
2021-02-05T17:13:00Z,00000200,01000000,-000.46,0000.46,0000.12,-000.18,0000.23,-000.07,-000.04,0000.04,0000.02,16.0,23.1,,00.0,0643.6,30.9
2021-02-05T17:14:00Z,00000200,01000000,0000.77,0000.39,-000.21,0000.27,-000.14,-000.17,0000.43,0000.10,-000.23,16.0,23.1,,00.0,0643.6,30.9
2021-02-05T17:15:00Z,00000200,01000000,0000.32,0000.25,0000.29,-000.03,0000.06,0000.24,0000.22,0000.75,0000.56,15.9,23.1,,00.0,0643.6,30.9
2021-02-05T17:16:00Z,00000200,01000000,-000.33,0000.08,0000.12,-000.37,0000.06,0000.01,0000.16,0000.47,0000.20,16.0,23.1,,00.0,0643.5,30.9
2021-02-05T17:17:00Z,00000200,01000000,0000.07,0000.51,0000.06,-000.26,0000.31,0000.10,0000.54,0000.07,0000.26,16.0,23.1,,00.0,0643.5,30.9
2021-02-05T17:18:00Z,00000200,01000000,0000.17,0000.20,0000.22,0000.18,0000.14,0000.09,0000.20,0000.19,0000.02,16.1,23.1,,00.0,0643.5,30.9
2021-02-05T17:19:00Z,00000200,01000000,0000.81,0000.35,0000.16,-000.00,0000.34,0000.24,0000.42,0000.14,0000.41,16.2,23.2,,00.0,0643.5,30.9
2021-02-05T17:20:00Z,00000200,01000000,0000.27,0000.49,-000.03,0000.08,0000.43,0000.35,0000.29,0000.11,-000.15,16.3,23.2,,00.0,0643.6,30.9
2021-02-05T17:21:00Z,00000200,01000000,0000.62,0000.38,-000.19,-000.16,0000.25,-000.01,0000.15,0000.53,0000.19,16.4,23.3,,00.0,0643.6,30.9
2021-02-05T17:22:00Z,00000200,01000000,0000.87,0000.41,-000.17,-000.29,0000.35,0000.03,0000.09,0000.16,0000.29,16.5,23.3,,00.0,0643.6,30.9
2021-02-05T17:23:00Z,00000200,01000000,0001.12,0000.34,0000.08,-000.05,0000.31,0000.22,0000.16,0000.06,0000.22,16.5,23.3,,00.0,0643.6,31.0
2021-02-05T17:24:00Z,00000200,01000000,0000.73,0000.04,0000.03,-000.33,0000.42,-000.09,-000.38,0000.25,0000.36,16.6,23.4,,00.0,0643.6,31.0
2021-02-05T17:25:00Z,00000200,01000000,0000.35,0000.22,0000.04,0000.23,0000.21,-000.05,0000.57,0000.09,-000.04,16.7,23.4,,00.0,0643.6,31.0
2021-02-05T17:26:00Z,00000200,01000000,0000.41,0000.17,-000.12,-000.32,0000.12,0000.16,-000.04,0000.29,-000.01,16.7,23.4,,00.0,0643.5,31.0
2021-02-05T17:27:00Z,00000200,01000000,0001.12,0000.24,0000.13,0000.23,0000.56,-000.02,0000.12,-000.30,-000.06,16.6,23.4,,00.0,0643.6,30.9
2021-02-05T17:28:00Z,00000200,01000000,-000.16,0000.25,-000.13,0000.12,0000.31,-000.28,-000.07,0000.04,-000.01,16.5,23.3,,00.0,0643.6,30.9
2021-02-05T17:29:00Z,00000200,01000000,0000.22,0000.32,0000.04,-000.54,0000.27,-000.08,0000.12,0000.40,0000.23,16.5,23.3,,00.0,0643.6,30.9
2021-02-05T17:30:00Z,00000200,01000000,-000.27,0000.34,0000.15,0000.29,0000.24,0000.12,0000.36,-000.36,-000.48,16.5,23.3,,00.0,0643.6,30.9
2021-02-05T17:31:00Z,00000200,01000000,-000.09,0000.21,0000.05,-000.80,0000.25,0000.13,0000.18,0000.50,0000.59,16.5,23.3,,00.0,0643.6,30.9
2021-02-05T17:32:00Z,00000200,01000000,0000.61,0000.36,0000.01,-000.20,0000.21,0000.40,0000.01,0000.09,-000.05,16.5,23.3,,00.0,0643.6,30.9
2021-02-05T17:33:00Z,00000200,01000000,0000.29,0000.47,0000.03,-000.14,0000.11,0000.07,0000.38,0000.24,0000.47,16.6,23.3,,00.0,0643.6,30.9
2021-02-05T17:34:00Z,00000200,01000000,0000.61,0000.24,0000.10,0000.04,0000.18,-000.29,0000.34,0000.10,0000.12,16.6,23.3,,00.0,0643.6,30.9
2021-02-05T17:35:00Z,00000200,01000000,0000.67,0000.25,0000.09,-000.36,0000.13,0000.09,0000.03,0000.35,0000.21,16.6,23.4,,00.0,0643.6,30.9
2021-02-05T17:36:00Z,00000200,01000000,0000.68,0000.64,0000.15,-000.20,0000.15,0000.28,0000.81,0000.47,-000.11,16.5,23.3,,00.0,0643.6,30.9
2021-02-05T17:37:00Z,00000200,01000000,0000.21,0000.29,0000.12,0000.73,0000.31,0000.26,0000.09,0000.14,0000.44,16.5,23.3,,00.0,0643.6,30.9
2021-02-05T17:38:00Z,00000200,01000000,0000.92,0000.35,-000.29,-000.17,0000.34,0000.06,0000.37,0000.40,0000.26,16.4,23.3,,00.0,0643.6,30.9
2021-02-05T17:39:00Z,00000200,01000000,0000.52,0000.41,-000.29,-000.50,0000.20,-000.34,0000.18,0000.54,-000.11,16.4,23.2,,00.0,0643.6,30.9
2021-02-05T17:40:00Z,00000200,01000000,-000.27,0000.24,-000.00,-000.70,0000.06,0000.07,0000.60,-000.12,0000.20,16.3,23.2,,00.0,0643.6,30.9
2021-02-05T17:41:00Z,00000200,01000000,0000.90,0000.19,-000.01,-000.20,0000.10,-000.15,0000.33,0000.36,0000.34,16.3,23.2,,00.0,0643.6,30.9
2021-02-05T17:42:00Z,00000200,01000000,0000.22,0000.36,-000.27,0000.29,0000.03,0000.07,0000.43,0000.69,0000.32,16.2,23.2,,00.0,0643.5,30.9
2021-02-05T17:43:00Z,00000200,01000000,0001.24,0000.22,0000.03,-000.56,0000.12,0000.03,0000.51,0000.35,0000.59,16.2,23.1,,00.0,0643.5,30.9
2021-02-05T17:44:00Z,00000200,01000000,0000.82,-000.00,0000.15,-000.18,0000.05,0000.07,0000.58,0000.48,0000.13,16.1,23.1,,00.0,0643.4,30.9
2021-02-05T17:45:00Z,00000200,01000000,0000.57,0000.38,-000.07,0000.33,0000.15,0000.03,0000.50,0000.31,0000.21,16.1,23.1,,00.0,0643.4,30.9
2021-02-05T17:46:00Z,00000200,01000000,0000.30,0000.21,0000.09,-000.24,0000.22,0000.30,0000.64,0000.85,0000.44,16.1,23.1,,00.0,0643.4,30.9
2021-02-05T17:47:00Z,00000200,01000000,0000.61,0000.35,0000.22,-000.08,0000.12,0000.27,0000.16,-000.21,0000.29,16.2,23.1,,00.0,0643.4,30.9
2021-02-05T17:48:00Z,00000200,01000000,0000.84,0000.39,-000.23,-000.65,0000.15,-000.09,0000.07,0000.57,0000.16,16.3,23.1,,00.0,0643.4,30.9
2021-02-05T17:49:00Z,00000200,01000000,0000.59,-000.01,-000.16,0000.09,0000.13,-000.02,0000.05,-000.21,-000.03,16.3,23.1,,00.0,0643.5,30.9
2021-02-05T17:50:00Z,00000200,01000000,0000.21,0000.39,0000.01,-000.04,0000.31,-000.02,0000.28,0000.18,-000.04,16.4,23.2,,00.0,0643.5,30.9
2021-02-05T17:51:00Z,00000200,01000000,0001.06,0000.46,-000.22,-000.43,0000.21,0000.06,-000.40,-000.69,0000.10,16.4,23.2,,00.0,0643.5,30.9
2021-02-05T17:52:00Z,00000200,01000000,0000.59,0000.27,0000.07,-000.39,0000.41,0000.08,-000.18,0000.52,-000.56,16.4,23.2,,00.0,0643.6,30.9
2021-02-05T17:53:00Z,00000200,01000000,0000.46,0000.32,-000.04,0000.03,0000.33,-000.13,0000.26,-000.37,0000.18,16.3,23.2,,00.0,0643.6,30.9
2021-02-05T17:54:00Z,00000200,01000000,0000.40,0000.53,0000.12,-000.45,0000.22,0000.24,-000.53,0000.12,-000.09,16.3,23.1,,00.0,0643.7,30.9
2021-02-05T17:55:00Z,00000200,01000000,0000.09,0000.30,0000.09,0000.18,-000.04,-000.01,0000.26,0000.11,0000.01,16.2,23.1,,00.0,0643.7,30.9
2021-02-05T17:56:00Z,00000200,01000000,0000.28,0000.29,0000.23,-000.16,0000.16,0000.32,-000.24,0000.11,0000.35,16.2,23.1,,00.0,0643.7,30.9
2021-02-05T17:57:00Z,00000200,41000000,,,,,,,-000.43,-000.93,-000.71,16.2,23.1,,00.0,0643.7,30.9
2021-02-05T17:58:00Z,00000200,61000000,,,,,,,0000.20,0000.09,0000.00,15.7,23.2,,00.0,0642.9,30.9
2021-02-05T17:59:00Z,00000200,21000000,,,,,,,-000.44,-000.39,0000.12,15.7,23.3,,00.0,0642.9,30.9
